Hourly Data Report for September 13, 2010

IQALUIT CLIMATE
NUNAVUT

63°44'50.000" N
68°32'40.000" W
33.50 m
2402592
71321
XFB

Download Data

Hourly Data (September 2010)
Hourly Data Report for September 13, 2010
TIME
LST
Temp Definition
°C
Dew Point Definition
°C
Rel Hum Definition
%
Precip. Amount Definition
mm

Wind Dir Definition
10's deg

Wind Spd Definition
km/h
Visibility Definition
km
Stn Press Definition
kPa
Hmdx Definition


Wind Chill Definition


Weather Definition


00:00 3.7 1.2 84   15 15   100.74     LegendNANA
01:00 3.7 0.9 82   15 20   100.71     LegendNANA
02:00 4.1 0.8 79   14 19   100.65     LegendNANA
03:00 3.9 1.0 81   13 13   100.61     LegendNANA
04:00 3.5 1.3 85   15 19   100.56     LegendNANA
05:00 3.7 1.8 87   16 19   100.51     LegendNANA
06:00 3.5 1.9 89   16 20   100.51     LegendNANA
07:00 4.8 2.0 82   15 33   100.47     LegendNANA
08:00 5.1 1.8 79   14 41   100.49     LegendNANA
09:00 5.6 2.5 80   14 37   100.48     LegendNANA
10:00 5.8 3.0 82   15 39   100.44     LegendNANA
11:00 5.9 3.2 83   15 33   100.43     LegendNANA
12:00 6.7 3.7 81   15 32   100.39     LegendNANA
13:00 5.6 3.4 86   16 33   100.34     LegendNANA
14:00 5.4 3.4 87   16 32   100.36     LegendNANA
15:00 5.4 3.5 88   15 33   100.40     LegendNANA
16:00 5.8 3.8 87   15 35   100.39     LegendNANA
17:00 5.0 3.5 90   16 32   100.39     LegendNANA
18:00 4.4 3.5 94   14 22   100.44     LegendNANA
19:00 4.5 3.7 95   14 22   100.49     LegendNANA
20:00 4.8 3.8 93   12 13   100.50     LegendNANA
21:00 4.6 3.7 94   14 13   100.51     LegendNANA
22:00 4.5 3.7 95   12 7   100.50     LegendNANA
23:00 4.2 3.6 96   14 7   100.50     LegendNANA

Notes on Data Quality.

Legend

  • E = Estimated
  • M = Missing
  • NA = Not Available*
  • [empty] = Indicates an unobserved value
Date modified: